sat.trackr.live / text

‹ back to catalog

GSAT-6

NORAD 40880 · 2015-041A

PAYLOAD ACTIVE UNKNOWN

§ Identity

Operator
Country
IND
Launch date
2015-08-27
Launch site
SRILR
Launch vehicle
Mass (kg)
RCS (m²)
2.00

Purposes: comms

External: N2YO · Heavens-Above · Gunter

§ Orbital elements

Epoch: 2026-09-20T03:37:40.851264Z

Period
1,436.07 min
Inclination
2.1579°
Eccentricity
0.0002922
Mean motion
1.00273427 rev/d
Perigee alt
35,773.8 km
Apogee alt
35,798.5 km
Semi-major
42,164.3 km
B*
0.0000e+0
RAAN
81.2826°
Arg perigee
101.5603°
Mean anomaly
313.1443°
Rev number
4,055

§ Raw data

GSAT-61 40880U 15041A   26263.15116726 -.00000164  00000+0  00000+0 0  99992 40880   2.1579  81.2826 0002922 101.5603 313.1443  1.00273427 40553

JSON: /api/v1/satellites/40880 · /tle

For live sub-satellite position, see the globe view (requires WebGL).

§ Visibility from observer

Set your observer location to see the next 7 days of passes ≥ 10°. The values pass through the URL so the page stays shareable.

No JS? Fill the form by hand. The geolocation button needs JavaScript.